カタログに戻る

STARLINK-34687

運用中通信VLEO
NORAD 64909·PAYLOAD·🇺🇸 United States

打ち上げ Jul 26, 2025 から Cape Canaveral Space Force Station

Loading…

次のパス (今後24時間)

TLE

最新Source: CelesTrak SupGP

元期: Sep 15, 2026, 02:42 UTC

1 64909C 25157F   26258.11298611 -.00057453  00000+0 -16976-2 0  2584
2 64909  53.1579 183.0571 0001343  87.3459 295.2254 15.34416553    19

AllMySatでSTARLINK-34687をリアルタイム追跡

Download on the App Store